[[{"header":{"parameterUnit":"m.s-1","parameterCategory":2,"la1":30.2991,"la2":30.254,"lo1":-89.0895,"lo2":-89.0444,"dy":0.0017,"dx":0.0017,"nx":28,"ny":28,"refTime":"2023-08-19T03:00:00:Z","depth":"0","parameterNumber":2,"parameterNumberName":"U-component_of_CURRENTS"},"data":[0,0,0,0,0,0,0,0,0,0,0,0,0,0,0,0,0,0,0,0,0,0,0,0,0,0,0,0,0,0,0,0,0,0,0,0,0,0,0,0,0,0,0,0,0,0,0,0,0,0,0,0,0,0,0,0,0,0,0.3845,0.3844,0,0.3748,0.3747,0.3745,0.3649,0.3648,0.3648,0.3647,0.3422,0.3417,0.3411,0,0,0,0,0,0,0,0,0,0,0,0,0,0.3741,0.3744,0.3845,0.3844,0.3843,0.3749,0.3747,0.3745,0.3649,0.3648,0.3647,0.3646,0.3423,0.3417,0.3411,0,0,0,0,0,0,0,0,0,0,0,0,0,0.3726,0.3745,0.3845,0.3788,0.3782,0.3749,0.3747,0.3745,0.365,0.3648,0.3647,0.3646,0.3425,0.3418,0.341,0.3387,0,0,0.3386,0.3383,0,0,0,0,0,0,0,0,0.3727,0.3729,0.3797,0.3792,0.3785,0.3714,0.3628,0.362,0.365,0.3695,0.3647,0.3645,0.3512,0.3497,0.3476,0.3376,0.3367,0.3385,0.3381,0.3377,0.3375,0,0,0,0,0,0,0,0.3728,0.3731,0.3802,0.3796,0.3789,0.3697,0.3695,0.3625,0.3605,0.3691,0.3685,0.3682,0.3506,0.3484,0.347,0.3363,0.3386,0.3379,0.3374,0.3371,0.3355,0.3359,0,0,0,0,0,0,0.3763,0.3734,0.3805,0.3799,0.3758,0.3701,0.3698,0.3734,0.3608,0.3591,0.3683,0.3678,0.3498,0.3479,0.3461,0.3451,0.3377,0.337,0.3366,0.3351,0.3356,0.3361,0,0,0,0,0,0,0.3762,0.3772,0.3809,0.3765,0.3764,0.3706,0.3746,0.3733,0.3713,0.3605,0.3583,0.3677,0.3496,0.3472,0.3386,0.344,0.3367,0.3359,0.3346,0.3353,0.3358,0.3413,0,0,0,0,0,0,0.376,0.3773,0.38,0.377,0.3768,0.3802,0.3747,0.3732,0.3715,0.3707,0.3593,0.3571,0.3493,0.3398,0.3378,0.3428,0.3353,0.334,0.3349,0.3356,0.3406,0.3421,0.3433,0,0,0,0,0,0.3757,0.3815,0.3803,0.3811,0.3813,0.3804,0.3794,0.3742,0.3717,0.3717,0.3622,0.3574,0.344,0.3391,0.3368,0.3417,0.3337,0.3347,0.3356,0.34,0.3418,0.3433,0,0,0,0,0,0,0.3785,0.381,0.3797,0.3859,0.3836,0.3789,0.3786,0.3756,0.3686,0.367,0.3564,0.3535,0.3515,0.3464,0.3415,0.3456,0.3407,0.3413,0.345,0.3466,0.3479,0.3489,0.3347,0,0,0,0,0,0.3809,0.3862,0.3846,0.3895,0.3886,0.3837,0.3824,0.3795,0.3736,0.3706,0.3628,0.3572,0.3542,0.3492,0.3464,0.3424,0.3424,0.3473,0.3486,0.3497,0.3501,0.3568,0.3586,0.3392,0.3392,0.3392,0,0,0.3836,0.3855,0.3885,0.3903,0.3877,0.3861,0.3825,0.3822,0.3801,0.369,0.3635,0.3611,0.3552,0.3533,0.3524,0.3479,0.3554,0.3509,0.3518,0.3516,0.358,0.3598,0.3614,0.3399,0.3398,0.3397,0,0,0.389,0.3929,0.3964,0.3949,0.3929,0.3899,0.3905,0.3864,0.3836,0.3781,0.3738,0.3729,0.3641,0.3623,0.3599,0.3674,0.3644,0.3705,0.3734,0.3799,0.3814,0.3828,0.3836,0.3849,0.3685,0.3685,0.3685,0,0.3914,0.395,0.3966,0.3969,0.3947,0.3919,0.3906,0.3886,0.3822,0.3794,0.3776,0.373,0.3691,0.3677,0.3722,0.37,0.3716,0.3654,0.3812,0.3825,0.3837,0.3843,0.3857,0.3689,0.3689,0.3688,0.3688,0,0.3956,0.3975,0.3992,0.3986,0.3973,0.3968,0.3935,0.3922,0.389,0.3855,0.3851,0.3814,0.378,0.3815,0.377,0.3861,0.3837,0.3835,0.3752,0.3859,0.3859,0.3873,0.3695,0.3693,0.3692,0.3691,0,0,0.4015,0.4021,0.4016,0.3988,0.3974,0.3956,0.395,0.391,0.3884,0.3877,0.3851,0.387,0.3871,0.3854,0.3849,0.3911,0.4019,0.3913,0.3915,0.3889,0.4133,0.3979,0.3978,0.4045,0.4049,0.4051,0.4089,0,0.4017,0.4017,0.4021,0.3988,0.3965,0.3945,0.3926,0.39,0.3875,0.3852,0.3869,0.3852,0.3878,0.3873,0.395,0.3996,0.4062,0.4007,0.4062,0.4063,0.3886,0.3992,0.3749,0.3752,0.4102,0.4104,0.4106,0,0.4018,0.4014,0.3989,0.395,0.3937,0.392,0.3869,0.3854,0.384,0.3826,0.3841,0.384,0.3903,0.3937,0.4068,0.4031,0.4105,0.4155,0.4157,0.4001,0.3934,0.3711,0.3763,0.3573,0.4126,0.4124,0.4123,0,0.3987,0.3974,0.3945,0.3933,0.3901,0.3881,0.3863,0.3839,0.3805,0.3817,0.3797,0.3862,0.3875,0.4006,0.4084,0.4095,0.4231,0.4242,0.4172,0.4159,0.3955,0.3918,0.3799,0.4385,0.4385,0.4385,0.4385,0,0.3962,0.3933,0.3926,0.3902,0.3848,0.3851,0.3797,0.379,0.3778,0.3728,0.3785,0.377,0.3909,0.3969,0.4086,0.4135,0.4226,0.4192,0.4174,0.3966,0.3931,0.3757,0.3701,0.4386,0.4386,0.4385,0.4385,0,0.3913,0.3919,0.3871,0.3842,0.3827,0.3786,0.3739,0.3698,0.3714,0.3664,0.3665,0.3706,0.3776,0.3881,0.4053,0.4083,0.4025,0.4188,0.3896,0.3844,0.357,0.3527,0.3361,0.3302,0.4107,0.4104,0.4101,0,0.3886,0.386,0.3811,0.3768,0.3749,0.3701,0.3654,0.3657,0.3616,0.3609,0.3575,0.3619,0.362,0.3759,0.3826,0.3935,0.3883,0.377,0.3761,0.352,0.3463,0.3385,0.3346,0.3515,0.3508,0.3502,0.3497,0,0.3807,0.3789,0.3743,0.3673,0.3616,0.3555,0.3506,0.3469,0.3462,0.3433,0.3403,0.3412,0.3476,0.3434,0.353,0.3592,0.3493,0.3646,0.3494,0.3066,0.2881,0.2822,0.3496,0.3443,0.3448,0.3452,0.3455,0.3457,0.3725,0.3673,0.3614,0.3536,0.3479,0.3405,0.3322,0.3287,0.3221,0.3122,0.322,0.3153,0.3094,0.3176,0.32,0.2975,0.3145,0.2884,0.2877,0.2841,0.2695,0.3214,0.308,0.3083,0.3086,0.3088,0.309,0,0.3585,0.3543,0.3476,0.3371,0.3276,0.3292,0.3196,0.3094,0.2984,0.2934,0.2889,0.2729,0.2609,0.2564,0.2356,0.2214,0.2212,0.213,0.197,0.2003,0.2523,0.2402,0.1992,0.1992,0.1993,0.1993,0.1993,0.1993,0.35,0.3392,0.3364,0.319,0.3126,0.2957,0.2886,0.2758,0.2686,0.2456,0.2311,0.2279,0.2118,0.1802,0.1536,0.1524,0.1433,0.1311,0.1444,0.1759,0.1829,0.1895,0.1767,0.123,0.1229,0.0821,0.0817,0.0814]},{"header":{"parameterUnit":"m.s-1","parameterCategory":2,"la1":30.2991,"la2":30.254,"lo1":-89.0895,"lo2":-89.0444,"dy":0.0017,"dx":0.0017,"nx":28,"ny":28,"refTime":"2023-08-19T03:00:00:Z","depth":"0","parameterNumber":3,"parameterNumberName":"V-component_of_CURRENTS"},"data":[0,0,0,0,0,0,0,0,0,0,0,0,0,0,0,0,0,0,0,0,0,0,0,0,0,0,0,0,0,0,0,0,0,0,0,0,0,0,0,0,0,0,0,0,0,0,0,0,0,0,0,0,0,0,0,0,0,0,0.1021,0.1021,0,0.1068,0.1068,0.1069,0.1084,0.1083,0.1083,0.1083,0.1023,0.1022,0.1021,0,0,0,0,0,0,0,0,0,0,0,0,0,0.0861,0.0864,0.1021,0.1021,0.1022,0.1068,0.1068,0.1069,0.1084,0.1083,0.1083,0.1083,0.1024,0.1022,0.1021,0,0,0,0,0,0,0,0,0,0,0,0,0,0.0923,0.0865,0.1021,0.1034,0.1035,0.1068,0.1068,0.1069,0.1084,0.1083,0.1083,0.1082,0.1024,0.1022,0.1021,0.1018,0,0,0.1015,0.1014,0,0,0,0,0,0,0,0,0.0919,0.0929,0.1031,0.1033,0.1035,0.1068,0.099,0.1047,0.1084,0.1067,0.1083,0.1082,0.1028,0.1026,0.1039,0.1016,0.1013,0.1015,0.1013,0.1013,0.1012,0,0,0,0,0,0,0,0.0915,0.0926,0.1041,0.1032,0.1034,0.1009,0.1018,0.1001,0.1048,0.1068,0.1069,0.1073,0.1028,0.1041,0.1037,0.1012,0.1015,0.1013,0.1012,0.1011,0.1016,0.1017,0,0,0,0,0,0,0.0913,0.0923,0.1039,0.1042,0.0973,0.1012,0.1022,0.1059,0.1051,0.105,0.1073,0.1073,0.1044,0.104,0.1035,0.1058,0.1013,0.1011,0.101,0.1014,0.1016,0.1017,0,0,0,0,0,0,0.091,0.0924,0.1037,0.098,0.0992,0.1016,0.1057,0.106,0.1073,0.1056,0.1053,0.1082,0.1044,0.1038,0.102,0.1054,0.101,0.1008,0.1013,0.1015,0.1017,0.1086,0,0,0,0,0,0,0.0906,0.0924,0.0943,0.0981,0.0996,0.1052,0.1057,0.1061,0.1075,0.1076,0.1062,0.1056,0.1043,0.1023,0.1018,0.1051,0.1007,0.1011,0.1014,0.1016,0.1082,0.109,0.1097,0,0,0,0,0,0.09,0.092,0.0944,0.0957,0.1025,0.1052,0.1057,0.1071,0.1076,0.1081,0.1073,0.1057,0.1035,0.1021,0.1016,0.1049,0.101,0.1013,0.1016,0.1079,0.1088,0.1096,0,0,0,0,0,0,0.0853,0.0925,0.0952,0.0993,0.1021,0.1054,0.1053,0.1073,0.1075,0.1069,0.1058,0.1052,0.1057,0.1037,0.1023,0.1059,0.1026,0.1028,0.1076,0.1085,0.1092,0.1097,0.1005,0,0,0,0,0,0.0857,0.0894,0.0951,0.0979,0.0994,0.1028,0.1039,0.1056,0.1065,0.1067,0.1068,0.1064,0.1067,0.106,0.1056,0.106,0.1045,0.1083,0.109,0.1097,0.1098,0.1114,0.1123,0.1027,0.1027,0.1027,0,0,0.0843,0.0886,0.0907,0.0971,0.0992,0.102,0.1033,0.105,0.1078,0.1056,0.1082,0.1084,0.1073,0.109,0.1092,0.1075,0.1115,0.11,0.1106,0.1103,0.1118,0.1127,0.1135,0.1029,0.1028,0.1028,0,0,0.0823,0.0878,0.0899,0.093,0.0969,0.1001,0.1009,0.1055,0.1077,0.1098,0.1104,0.1125,0.1118,0.1138,0.114,0.1181,0.1154,0.1184,0.1223,0.1239,0.1247,0.1254,0.1239,0.1244,0.1187,0.1188,0.1188,0,0.08,0.0854,0.0901,0.0926,0.095,0.0996,0.1018,0.1052,0.1089,0.1113,0.1106,0.1153,0.1147,0.1187,0.1211,0.1199,0.1188,0.119,0.1249,0.1255,0.1261,0.1244,0.1249,0.1191,0.1191,0.119,0.119,0,0.08,0.0843,0.085,0.0916,0.0946,0.0967,0.1028,0.1068,0.1103,0.114,0.119,0.1202,0.1228,0.1248,0.1239,0.1294,0.1265,0.1257,0.1226,0.1275,0.1254,0.1258,0.1196,0.1195,0.1194,0.1193,0,0,0.0751,0.0837,0.084,0.0872,0.0946,0.097,0.1028,0.1096,0.1138,0.1187,0.124,0.1281,0.1301,0.1306,0.1319,0.1346,0.1383,0.1323,0.1322,0.1307,0.1396,0.1329,0.1325,0.1385,0.1386,0.1387,0.1362,0,0.0736,0.0781,0.0834,0.0879,0.091,0.0983,0.1033,0.11,0.1158,0.1221,0.127,0.131,0.1318,0.1337,0.1371,0.1385,0.1397,0.1389,0.1351,0.1349,0.1284,0.1329,0.1322,0.1295,0.1365,0.1365,0.1366,0,0.0721,0.0759,0.0797,0.0882,0.0901,0.0935,0.1034,0.1086,0.1187,0.1232,0.1299,0.1331,0.1397,0.1386,0.1434,0.1427,0.1412,0.1417,0.1416,0.1331,0.1289,0.1259,0.1298,0.1277,0.137,0.137,0.137,0,0.0664,0.0735,0.0767,0.0794,0.0892,0.0926,0.0979,0.1081,0.1134,0.1237,0.1279,0.1358,0.1387,0.1414,0.1429,0.1431,0.1459,0.1456,0.1377,0.137,0.1345,0.1334,0.1358,0.1468,0.1468,0.1469,0.1469,0,0.0639,0.0666,0.074,0.076,0.0806,0.088,0.0941,0.1019,0.1115,0.1179,0.1268,0.1325,0.1396,0.1425,0.1434,0.1414,0.1455,0.1387,0.1368,0.1366,0.1358,0.1319,0.1305,0.1467,0.1468,0.1468,0.1468,0,0.059,0.0634,0.0675,0.0757,0.0782,0.0813,0.0912,0.0964,0.1055,0.1141,0.1171,0.1293,0.1341,0.1381,0.1418,0.1398,0.1383,0.1367,0.1343,0.1322,0.1223,0.1212,0.119,0.1228,0.1286,0.1284,0.1283,0,0.058,0.0591,0.0658,0.0681,0.0718,0.0773,0.0821,0.0924,0.0984,0.1123,0.116,0.1233,0.1307,0.133,0.1328,0.1318,0.1316,0.1255,0.1263,0.1219,0.1194,0.1194,0.1231,0.1255,0.1254,0.1253,0.1252,0,0.0564,0.0575,0.0609,0.0649,0.0688,0.0746,0.0816,0.0853,0.0979,0.105,0.1153,0.1219,0.1263,0.1285,0.1253,0.1239,0.125,0.1225,0.1211,0.1195,0.1169,0.1196,0.1248,0.1241,0.1242,0.1242,0.1243,0.1244,0.0549,0.0561,0.0594,0.0632,0.0675,0.0731,0.0771,0.0846,0.093,0.1044,0.1111,0.1211,0.1238,0.1226,0.1197,0.112,0.1158,0.1092,0.1086,0.1093,0.1122,0.1121,0.107,0.1071,0.1071,0.1071,0.1071,0,0.0542,0.0556,0.0586,0.0635,0.0669,0.0705,0.0784,0.0821,0.0901,0.1009,0.1088,0.1174,0.1165,0.1159,0.1071,0.1009,0.1051,0.0972,0.1005,0.1059,0.1085,0.1074,0.0985,0.0985,0.0985,0.0985,0.0985,0.0985,0.054,0.0557,0.0572,0.0624,0.0658,0.0707,0.0748,0.0793,0.0872,0.0967,0.1051,0.1126,0.1159,0.1001,0.0923,0.0915,0.0955,0.0892,0.0942,0.0968,0.0981,0.0992,0.0982,0.0874,0.0874,0.0958,0.0959,0.0959]}],[{"header":{"parameterUnit":"m.s-1","parameterCategory":2,"la1":30.2991,"la2":30.254,"lo1":-89.0895,"lo2":-89.0444,"dy":0.0017,"dx":0.0017,"nx":28,"ny":28,"refTime":"2023-08-19T03:00:00:Z","depth":"2","parameterNumber":2,"parameterNumberName":"U-component_of_CURRENTS"},"data":[0,0,0,0,0,0,0,0,0,0,0,0,0,0,0,0,0,0,0,0,0,0,0,0,0,0,0,0,0,0,0,0,0,0,0,0,0,0,0,0,0,0,0,0,0,0,0,0,0,0,0,0,0,0,0,0,0,0,0.1537,0.1539,0,0.1737,0.174,0.1743,0.2036,0.2041,0.2045,0.205,0.2071,0.2068,0.2064,0,0,0,0,0,0,0,0,0,0,0,0,0,0.1661,0.1656,0.1537,0.1539,0.1541,0.1737,0.174,0.1743,0.2035,0.2041,0.2046,0.2052,0.2072,0.2068,0.2064,0,0,0,0,0,0,0,0,0,0,0,0,0,0.1714,0.1655,0.1537,0.1705,0.1722,0.1736,0.174,0.1744,0.2034,0.2041,0.2048,0.2054,0.2074,0.2069,0.2063,0.1894,0,0,0.2046,0.2044,0,0,0,0,0,0,0,0,0.171,0.171,0.1679,0.1694,0.1712,0.1863,0.1792,0.1783,0.2033,0.1923,0.205,0.2057,0.1975,0.1978,0.2013,0.1895,0.1896,0.2046,0.2043,0.204,0.2039,0,0,0,0,0,0,0,0.1706,0.1704,0.1623,0.168,0.17,0.1857,0.1871,0.1794,0.191,0.1933,0.1953,0.1962,0.1986,0.2018,0.2015,0.1896,0.2046,0.2041,0.2038,0.2036,0.2147,0.2152,0,0,0,0,0,0,0.1645,0.1698,0.1617,0.1628,0.1721,0.1848,0.1864,0.1813,0.1916,0.1938,0.1956,0.1975,0.2024,0.2021,0.2016,0.2075,0.204,0.2035,0.2032,0.214,0.2148,0.2155,0,0,0,0,0,0,0.1646,0.1633,0.1609,0.1668,0.1675,0.1836,0.1779,0.1813,0.1927,0.1934,0.1956,0.2043,0.2029,0.2024,0.2075,0.2068,0.2033,0.2028,0.2133,0.2143,0.2151,0.2027,0,0,0,0,0,0,0.1648,0.1631,0.1604,0.166,0.1669,0.1642,0.1773,0.1812,0.1913,0.1943,0.2011,0.2019,0.2034,0.2084,0.2069,0.206,0.2024,0.2125,0.2137,0.2148,0.2023,0.203,0.2037,0,0,0,0,0,0.165,0.1554,0.1599,0.1593,0.1613,0.164,0.166,0.1806,0.1911,0.194,0.2052,0.2021,0.2152,0.2081,0.2063,0.2052,0.212,0.2134,0.2147,0.202,0.2029,0.2037,0,0,0,0,0,0,0.1592,0.1575,0.1628,0.1533,0.1602,0.1689,0.17,0.1818,0.1929,0.1956,0.2031,0.2043,0.2104,0.2122,0.2044,0.2154,0.2153,0.2164,0.2063,0.2071,0.2078,0.1946,0.2019,0,0,0,0,0,0.1554,0.148,0.1532,0.1464,0.1478,0.1605,0.1647,0.1736,0.1823,0.1888,0.1951,0.2047,0.2128,0.214,0.2187,0.2166,0.2138,0.2192,0.2199,0.2203,0.2106,0.2121,0.2113,0.2201,0.22,0.22,0,0,0.151,0.1492,0.1455,0.145,0.1501,0.1495,0.165,0.1677,0.171,0.1845,0.1909,0.2036,0.2144,0.2188,0.2217,0.22,0.2182,0.2221,0.2221,0.212,0.2133,0.2122,0.2112,0.221,0.2208,0.2207,0,0,0.1385,0.1364,0.1288,0.1322,0.1372,0.1422,0.1441,0.1544,0.1636,0.1713,0.1865,0.1971,0.2083,0.2136,0.2191,0.2247,0.2229,0.2355,0.2226,0.2244,0.2231,0.2219,0.2192,0.2178,0.2342,0.2342,0.2341,0,0.1332,0.1262,0.1284,0.1244,0.1268,0.1387,0.1366,0.1424,0.1556,0.1614,0.1729,0.197,0.203,0.2091,0.2164,0.2227,0.2264,0.2155,0.2231,0.222,0.2209,0.2184,0.217,0.2337,0.2338,0.2338,0.2339,0,0.119,0.1161,0.111,0.1087,0.1107,0.1094,0.1166,0.1218,0.1362,0.1462,0.1608,0.1748,0.1902,0.1983,0.2077,0.2088,0.2147,0.2232,0.2153,0.2188,0.2167,0.2153,0.2331,0.2333,0.2334,0.2335,0,0,0.1031,0.1008,0.1013,0.1026,0.1039,0.1043,0.1033,0.1098,0.1155,0.1294,0.1399,0.1548,0.1682,0.1755,0.1905,0.1907,0.1879,0.2043,0.2047,0.1912,0.1917,0.1844,0.1823,0.2015,0.2012,0.201,0.1931,0,0.095,0.0862,0.0873,0.0839,0.0825,0.0897,0.0904,0.0967,0.1092,0.12,0.1334,0.1497,0.1583,0.1729,0.1722,0.1903,0.1843,0.1889,0.199,0.1988,0.1834,0.1804,0.1694,0.1606,0.1919,0.1917,0.1915,0,0.0866,0.083,0.0775,0.0789,0.0788,0.0789,0.0857,0.0877,0.099,0.1108,0.1218,0.1382,0.1443,0.1548,0.1622,0.1688,0.1737,0.1812,0.1814,0.1744,0.1889,0.1634,0.1571,0.1894,0.1895,0.1897,0.1898,0,0.0841,0.0784,0.0752,0.0753,0.0756,0.0785,0.0806,0.0889,0.0938,0.1073,0.1174,0.1263,0.1408,0.1444,0.1604,0.1651,0.1678,0.1767,0.168,0.1678,0.1583,0.1574,0.1685,0.1685,0.1685,0.1685,0.1685,0,0.0778,0.077,0.0762,0.0764,0.0778,0.0785,0.084,0.0884,0.0966,0.1036,0.115,0.1251,0.1407,0.1486,0.1549,0.1571,0.1619,0.1573,0.1627,0.1552,0.1542,0.1802,0.1817,0.1682,0.1683,0.1683,0.1684,0,0.0778,0.0757,0.0754,0.0767,0.0784,0.0815,0.087,0.0901,0.0981,0.1078,0.1134,0.1272,0.1376,0.1451,0.1556,0.1527,0.1548,0.1521,0.1394,0.1429,0.153,0.1542,0.1369,0.1365,0.1362,0.1359,0.1357,0,0.0748,0.0749,0.0786,0.0814,0.0843,0.0885,0.0918,0.0946,0.097,0.1101,0.114,0.1272,0.1329,0.1384,0.1392,0.1361,0.1469,0.1223,0.1217,0.1413,0.1486,0.1503,0.1518,0.1072,0.1068,0.1064,0.1061,0,0.0727,0.0775,0.0778,0.0845,0.0892,0.0913,0.0954,0.0959,0.1001,0.1081,0.1187,0.1234,0.1257,0.1211,0.1148,0.1124,0.1219,0.1142,0.1394,0.1171,0.1128,0.1202,0.1228,0.1029,0.1032,0.1035,0.1036,0.1038,0.0734,0.0754,0.079,0.0856,0.091,0.0942,0.1001,0.1011,0.1051,0.1153,0.1141,0.1168,0.1069,0.0938,0.0909,0.0919,0.0971,0.0931,0.0945,0.0962,0.0943,0.0897,0.0748,0.075,0.0751,0.0752,0.0753,0,0.0703,0.0744,0.079,0.0844,0.0907,0.0979,0.1025,0.1041,0.1127,0.1138,0.119,0.0906,0.0792,0.0775,0.0718,0.0644,0.0669,0.0641,0.0693,0.0721,0.0747,0.0722,0.0467,0.0467,0.0467,0.0466,0,0,0.0677,0.0698,0.0722,0.0812,0.0922,0.1037,0.1122,0.1138,0.113,0.1073,0.1052,0.0924,0.0775,0.0647,0.0561,0.0565,0.0674,0.0539,0.0757,0.0854,0.0882,0.0878,0.0864,0,0,0,0,0]},{"header":{"parameterUnit":"m.s-1","parameterCategory":2,"la1":30.2991,"la2":30.254,"lo1":-89.0895,"lo2":-89.0444,"dy":0.0017,"dx":0.0017,"nx":28,"ny":28,"refTime":"2023-08-19T03:00:00:Z","depth":"2","parameterNumber":3,"parameterNumberName":"V-component_of_CURRENTS"},"data":[0,0,0,0,0,0,0,0,0,0,0,0,0,0,0,0,0,0,0,0,0,0,0,0,0,0,0,0,0,0,0,0,0,0,0,0,0,0,0,0,0,0,0,0,0,0,0,0,0,0,0,0,0,0,0,0,0,0,-0.033,-0.0328,0,-0.0232,-0.0231,-0.023,-0.014,-0.0139,-0.0138,-0.0136,0.0056,0.0059,0.0063,0,0,0,0,0,0,0,0,0,0,0,0,0,-0.0323,-0.0325,-0.033,-0.0328,-0.0327,-0.0232,-0.0231,-0.023,-0.0141,-0.0139,-0.0137,-0.0136,0.0055,0.0059,0.0064,0,0,0,0,0,0,0,0,0,0,0,0,0,-0.029,-0.0326,-0.033,-0.0268,-0.0261,-0.0232,-0.0231,-0.023,-0.0141,-0.0139,-0.0137,-0.0135,0.0053,0.0059,0.0064,0.0056,0,0,0.0081,0.0084,0,0,0,0,0,0,0,0,-0.0292,-0.0291,-0.0279,-0.0272,-0.0264,-0.0193,-0.0158,-0.0128,-0.0142,-0.0191,-0.0136,-0.0134,-0.0018,-0.0006,0.0001,0.0065,0.0073,0.0082,0.0085,0.0088,0.0089,0,0,0,0,0,0,0,-0.0295,-0.0294,-0.0295,-0.0277,-0.0268,-0.0205,-0.0199,-0.0152,-0.0119,-0.0186,-0.0179,-0.0162,-0.0013,-0.0005,0.0006,0.0076,0.0082,0.0087,0.009,0.0092,0.0223,0.0223,0,0,0,0,0,0,-0.0308,-0.0297,-0.0298,-0.0292,-0.0269,-0.0207,-0.0201,-0.0221,-0.0121,-0.0103,-0.0164,-0.0158,-0.0016,-0.0001,0.0013,0.011,0.0088,0.0093,0.0096,0.0223,0.0223,0.0223,0,0,0,0,0,0,-0.0309,-0.0311,-0.0302,-0.0286,-0.028,-0.021,-0.0233,-0.022,-0.0193,-0.0105,-0.0085,-0.0147,-0.0014,0.0006,0.01,0.0115,0.0096,0.0101,0.0223,0.0223,0.0223,0.0239,0,0,0,0,0,0,-0.031,-0.0313,-0.033,-0.0289,-0.0281,-0.0247,-0.0234,-0.022,-0.0185,-0.0176,-0.0084,-0.0065,-0.001,0.0091,0.0105,0.0122,0.0105,0.0223,0.0223,0.0223,0.0239,0.024,0.0241,0,0,0,0,0,-0.0311,-0.0322,-0.0333,-0.0331,-0.031,-0.0245,-0.0234,-0.0179,-0.0186,-0.0153,-0.009,-0.0067,0.0101,0.0097,0.0113,0.0132,0.0223,0.0223,0.0223,0.0238,0.024,0.0241,0,0,0,0,0,0,-0.0316,-0.0313,-0.0323,-0.0333,-0.0282,-0.0227,-0.0198,-0.0183,-0.0118,-0.0114,-0.0046,-0.0021,0.0054,0.0086,0.0079,0.0164,0.0156,0.016,0.0162,0.0164,0.0165,0.0165,0.011,0,0,0,0,0,-0.0336,-0.0351,-0.0319,-0.0322,-0.0304,-0.0264,-0.0237,-0.0205,-0.0144,-0.0115,-0.0046,0.001,0.0059,0.011,0.0159,0.0222,0.0222,0.0235,0.0236,0.0237,0.0245,0.0237,0.0238,0.0224,0.0224,0.0224,0,0,-0.0337,-0.0338,-0.0345,-0.0324,-0.0294,-0.024,-0.0241,-0.0195,-0.0144,-0.0105,-0.001,0.0017,0.0072,0.0145,0.0179,0.0186,0.0243,0.0237,0.0238,0.0246,0.0237,0.0239,0.024,0.0224,0.0224,0.0224,0,0,-0.0315,-0.0352,-0.0341,-0.0301,-0.0254,-0.0225,-0.0213,-0.0153,-0.0119,-0.004,-0.0014,0.0026,0.0129,0.0167,0.0195,0.0224,0.0237,0.0234,0.0265,0.0258,0.0259,0.026,0.0273,0.0275,0.025,0.025,0.025,0,-0.0313,-0.0306,-0.0315,-0.0272,-0.0227,-0.0217,-0.0158,-0.0126,-0.0036,0.0005,0.0003,0.0107,0.0134,0.021,0.0215,0.0228,0.0237,0.026,0.026,0.0261,0.0261,0.0274,0.0276,0.0251,0.0251,0.0251,0.0251,0,-0.0265,-0.0249,-0.0228,-0.0186,-0.0139,-0.0088,-0.0042,0.0007,0.0029,0.0069,0.0141,0.0164,0.0235,0.0225,0.0235,0.0259,0.0267,0.0249,0.0257,0.0264,0.0277,0.0279,0.0252,0.0252,0.0252,0.0252,0,0,-0.0291,-0.0212,-0.0205,-0.016,-0.0092,-0.0044,0.0032,0.0116,0.0175,0.0214,0.0296,0.0311,0.0304,0.0329,0.0323,0.0305,0.0295,0.0284,0.0283,0.03,0.0303,0.0348,0.0354,0.0283,0.0283,0.0283,0.0314,0,-0.0244,-0.0154,-0.0122,-0.0018,0.0036,0.0083,0.0162,0.0232,0.0285,0.0368,0.0353,0.0413,0.035,0.037,0.0343,0.0325,0.03,0.029,0.0292,0.0292,0.0333,0.0357,0.0281,0.0305,0.0316,0.0316,0.0316,0,-0.0212,-0.0151,-0.0053,0.0068,0.0097,0.0153,0.0276,0.0349,0.0447,0.0489,0.0531,0.0541,0.0547,0.0459,0.0425,0.0431,0.036,0.0316,0.0316,0.0355,0.0341,0.0298,0.0308,0.0319,0.0319,0.0319,0.0319,0,-0.0231,-0.0105,-0.0029,0.0012,0.0146,0.0196,0.0262,0.0374,0.0445,0.0548,0.061,0.0638,0.0645,0.0576,0.05,0.0466,0.0452,0.0397,0.0368,0.0371,0.0306,0.0304,0.033,0.033,0.033,0.033,0.0329,0,-0.0203,-0.0139,-0.0042,0.0001,0.0097,0.0186,0.0287,0.0373,0.0489,0.0586,0.0642,0.0719,0.0663,0.0667,0.0564,0.051,0.0506,0.0387,0.0385,0.0312,0.031,0.0315,0.0313,0.0331,0.033,0.033,0.033,0,-0.0232,-0.0166,-0.0083,0.0043,0.008,0.0134,0.0271,0.0356,0.047,0.0596,0.063,0.0773,0.0803,0.0758,0.0679,0.0604,0.0534,0.0491,0.0432,0.0422,0.0438,0.0437,0.048,0.0482,0.0483,0.0484,0.0486,0,-0.0218,-0.0186,-0.0092,-0.0052,-0.0004,0.0088,0.0163,0.0305,0.0402,0.0631,0.0695,0.0804,0.0886,0.0858,0.0746,0.0639,0.0586,0.0501,0.0403,0.0462,0.0455,0.045,0.0447,0.0317,0.0317,0.0317,0.0317,0,-0.0189,-0.0194,-0.0135,-0.0075,-0.0014,0.0083,0.0197,0.0275,0.0465,0.0609,0.0821,0.0913,0.0921,0.0837,0.0724,0.0632,0.0529,0.0495,0.057,0.0308,0.0316,0.0307,0.0307,0.0314,0.0314,0.0314,0.0315,0.0315,-0.0187,-0.0166,-0.012,-0.0067,0.0,0.01,0.0192,0.0331,0.051,0.0747,0.0842,0.0963,0.0828,0.069,0.0594,0.0527,0.0529,0.0424,0.042,0.0419,0.0411,0.0423,0.0441,0.0442,0.0443,0.0443,0.0444,0,-0.0138,-0.0133,-0.0087,-0.001,0.0055,0.0083,0.0251,0.0372,0.0579,0.0736,0.0904,0.0786,0.0687,0.0592,0.0463,0.0381,0.0338,0.0361,0.0271,0.0274,0.0277,0.0259,0.0249,0.0249,0.0249,0.0249,0,0,-0.0103,-0.0066,-0.0054,0.0044,0.008,0.0215,0.0308,0.0469,0.0612,0.0791,0.0843,0.0835,0.0682,0.0508,0.038,0.0334,0.0339,0.0332,0.0486,0.0396,0.04,0.0302,0.0278,0,0,0,0,0]}],[{"header":{"parameterUnit":"m.s-1","parameterCategory":2,"la1":30.2991,"la2":30.254,"lo1":-89.0895,"lo2":-89.0444,"dy":0.0017,"dx":0.0017,"nx":28,"ny":28,"refTime":"2023-08-19T03:00:00:Z","depth":"4","parameterNumber":2,"parameterNumberName":"U-component_of_CURRENTS"},"data":[0,0,0,0,0,0,0,0,0,0,0,0,0,0,0,0,0,0,0,0,0,0,0,0,0,0,0,0,0,0,0,0,0,0,0,0,0,0,0,0,0,0,0,0,0,0,0,0,0,0,0,0,0,0,0,0,0,0,-0.0524,-0.0525,0,-0.0614,-0.0615,-0.0617,-0.0777,-0.078,-0.0782,-0.0785,-0.0929,-0.093,-0.0932,0,0,0,0,0,0,0,0,0,0,0,0,0,-0.0509,-0.0508,-0.0524,-0.0525,-0.0525,-0.0613,-0.0615,-0.0617,-0.0777,-0.078,-0.0783,-0.0786,-0.0928,-0.093,-0.0932,0,0,0,0,0,0,0,0,0,0,0,0,0,-0.0554,-0.0508,-0.0524,-0.0611,-0.0619,-0.0613,-0.0615,-0.0617,-0.0776,-0.078,-0.0784,-0.0787,-0.0928,-0.093,-0.0932,-0.0872,0,0,-0.0939,-0.094,0,0,0,0,0,0,0,0,-0.0551,-0.0556,-0.0598,-0.0605,-0.0614,-0.0682,-0.0662,-0.0703,-0.0775,-0.0723,-0.0785,-0.0789,-0.0844,-0.0854,-0.0871,-0.0879,-0.0885,-0.0939,-0.0941,-0.0942,-0.0942,0,0,0,0,0,0,0,-0.0548,-0.0553,-0.0566,-0.0598,-0.0608,-0.065,-0.0662,-0.0671,-0.0768,-0.0728,-0.0739,-0.0737,-0.0851,-0.0868,-0.0875,-0.0887,-0.0939,-0.0941,-0.0943,-0.0944,-0.0876,-0.0873,0,0,0,0,0,0,-0.0519,-0.0549,-0.0563,-0.0568,-0.0584,-0.0647,-0.066,-0.0662,-0.0767,-0.0784,-0.0734,-0.0744,-0.0862,-0.0873,-0.0881,-0.097,-0.0942,-0.0944,-0.0945,-0.088,-0.0876,-0.0872,0,0,0,0,0,0,-0.0518,-0.0519,-0.056,-0.0556,-0.0563,-0.0643,-0.0644,-0.0662,-0.0729,-0.0769,-0.079,-0.0788,-0.0866,-0.0878,-0.0983,-0.0971,-0.0945,-0.0947,-0.0883,-0.0878,-0.0874,-0.1049,0,0,0,0,0,0,-0.0517,-0.0518,-0.0534,-0.0553,-0.0562,-0.0585,-0.064,-0.066,-0.0716,-0.0732,-0.0821,-0.0836,-0.087,-0.098,-0.0985,-0.0974,-0.0949,-0.0887,-0.0881,-0.0876,-0.1048,-0.1051,-0.1054,0,0,0,0,0,-0.0516,-0.0527,-0.0535,-0.0537,-0.0573,-0.0584,-0.0594,-0.0667,-0.0715,-0.0744,-0.0847,-0.0836,-0.0939,-0.0984,-0.099,-0.0979,-0.089,-0.0883,-0.0876,-0.1046,-0.105,-0.1054,0,0,0,0,0,0,-0.0542,-0.0543,-0.0553,-0.0568,-0.0581,-0.061,-0.0648,-0.0678,-0.0776,-0.0831,-0.0871,-0.0893,-0.0972,-0.092,-0.0966,-0.0917,-0.0879,-0.0873,-0.1005,-0.1009,-0.1012,-0.0962,-0.0951,0,0,0,0,0,-0.0541,-0.0551,-0.055,-0.0566,-0.0574,-0.0611,-0.0634,-0.0687,-0.0754,-0.0803,-0.0856,-0.0888,-0.0925,-0.094,-0.0967,-0.0965,-0.0941,-0.0921,-0.0925,-0.0929,-0.0877,-0.0922,-0.0929,-0.0849,-0.0849,-0.0849,0,0,-0.0551,-0.0556,-0.0562,-0.0571,-0.0597,-0.0617,-0.064,-0.0698,-0.0735,-0.0798,-0.0895,-0.0945,-0.0936,-0.0978,-0.0989,-0.0948,-0.0935,-0.092,-0.0927,-0.087,-0.0916,-0.0925,-0.0933,-0.0844,-0.0845,-0.0846,0,0,-0.0573,-0.0583,-0.06,-0.0609,-0.0648,-0.0663,-0.068,-0.0729,-0.0781,-0.0846,-0.0919,-0.0985,-0.0981,-0.1018,-0.1017,-0.1023,-0.0987,-0.0967,-0.0931,-0.0979,-0.0989,-0.0997,-0.0996,-0.1003,-0.0932,-0.0932,-0.0933,0,-0.0589,-0.0606,-0.0608,-0.0628,-0.0639,-0.0681,-0.0705,-0.0746,-0.0832,-0.0861,-0.0887,-0.0953,-0.0992,-0.1039,-0.1036,-0.1044,-0.1031,-0.0958,-0.0997,-0.1004,-0.101,-0.1006,-0.1012,-0.094,-0.0939,-0.0938,-0.0938,0,-0.061,-0.064,-0.0654,-0.0681,-0.0691,-0.0729,-0.0755,-0.0804,-0.0846,-0.0873,-0.0946,-0.1018,-0.1021,-0.1035,-0.1043,-0.1064,-0.1034,-0.1054,-0.1025,-0.1031,-0.1023,-0.1026,-0.0951,-0.0948,-0.0946,-0.0944,0,0,-0.0601,-0.0656,-0.0666,-0.0682,-0.073,-0.0731,-0.0789,-0.082,-0.0852,-0.0917,-0.0942,-0.1013,-0.1025,-0.1014,-0.1049,-0.107,-0.114,-0.1044,-0.1044,-0.1104,-0.1202,-0.1089,-0.108,-0.1188,-0.1188,-0.1189,-0.1193,0,-0.0622,-0.0663,-0.0683,-0.0722,-0.0738,-0.0773,-0.0795,-0.084,-0.0875,-0.0915,-0.0975,-0.1009,-0.1019,-0.1031,-0.1067,-0.1136,-0.1146,-0.1132,-0.1125,-0.1122,-0.1076,-0.108,-0.1191,-0.1195,-0.1195,-0.1196,-0.1196,0,-0.0629,-0.0656,-0.0692,-0.0726,-0.0732,-0.0742,-0.0769,-0.08,-0.086,-0.0884,-0.0924,-0.0966,-0.1014,-0.102,-0.1105,-0.1092,-0.1114,-0.1161,-0.1164,-0.0981,-0.1012,-0.1167,-0.12,-0.12,-0.12,-0.1199,-0.1199,0,-0.0605,-0.0656,-0.068,-0.0692,-0.0734,-0.0735,-0.0739,-0.0783,-0.0807,-0.0845,-0.0871,-0.0936,-0.0974,-0.1023,-0.1093,-0.109,-0.119,-0.1216,-0.1132,-0.1125,-0.116,-0.1151,-0.1246,-0.1246,-0.1246,-0.1246,-0.1246,0,-0.0597,-0.0626,-0.0658,-0.0675,-0.0664,-0.0688,-0.0688,-0.0705,-0.0749,-0.0793,-0.083,-0.0878,-0.0974,-0.1052,-0.109,-0.1106,-0.1186,-0.1095,-0.1114,-0.1227,-0.1225,-0.1164,-0.1155,-0.1247,-0.1246,-0.1246,-0.1246,0,-0.0571,-0.0609,-0.0637,-0.0666,-0.0658,-0.0632,-0.0633,-0.0651,-0.0679,-0.0742,-0.0748,-0.084,-0.0891,-0.0987,-0.1087,-0.1094,-0.1135,-0.1122,-0.1205,-0.1236,-0.1027,-0.1026,-0.0992,-0.0988,-0.0985,-0.0982,-0.0979,0,-0.056,-0.0576,-0.0615,-0.0596,-0.0598,-0.057,-0.0572,-0.0597,-0.0644,-0.0728,-0.0782,-0.0822,-0.088,-0.089,-0.1003,-0.1035,-0.1041,-0.1056,-0.1034,-0.0976,-0.1,-0.1004,-0.1007,-0.0974,-0.0973,-0.0972,-0.0971,0,-0.0533,-0.0564,-0.0584,-0.0561,-0.0541,-0.0536,-0.055,-0.0545,-0.0623,-0.0701,-0.0712,-0.0713,-0.0771,-0.0803,-0.0831,-0.0881,-0.1045,-0.1019,-0.1026,-0.1005,-0.0954,-0.0982,-0.0989,-0.0959,-0.0961,-0.0962,-0.0963,0,-0.0509,-0.0507,-0.0541,-0.0506,-0.0495,-0.0481,-0.0475,-0.0501,-0.0518,-0.0622,-0.0637,-0.0674,-0.0749,-0.0726,-0.0785,-0.078,-0.0759,-0.0758,-0.0778,-0.0792,-0.0733,-0.0639,-0.0537,0,0,0,0,0,-0.0476,-0.0487,-0.0473,-0.0427,-0.0426,-0.0436,-0.0482,-0.0502,-0.059,-0.0557,-0.057,-0.0594,-0.0582,-0.0618,-0.0568,-0.0739,-0.0797,-0.0687,-0.0813,-0.0893,-0.0907,-0.0861,0,0,0,0,0,0,-0.0449,-0.0462,-0.0475,-0.0399,-0.0356,-0.0356,-0.0379,-0.0429,-0.0408,-0.0484,-0.0455,-0.0555,-0.054,-0.057,-0.0548,-0.0569,-0.0635,-0.0734,-0.0732,-0.0885,-0.0898,-0.0909,-0.0867,0,0,0,0,0]},{"header":{"parameterUnit":"m.s-1","parameterCategory":2,"la1":30.2991,"la2":30.254,"lo1":-89.0895,"lo2":-89.0444,"dy":0.0017,"dx":0.0017,"nx":28,"ny":28,"refTime":"2023-08-19T03:00:00:Z","depth":"4","parameterNumber":3,"parameterNumberName":"V-component_of_CURRENTS"},"data":[0,0,0,0,0,0,0,0,0,0,0,0,0,0,0,0,0,0,0,0,0,0,0,0,0,0,0,0,0,0,0,0,0,0,0,0,0,0,0,0,0,0,0,0,0,0,0,0,0,0,0,0,0,0,0,0,0,0,0.0395,0.0395,0,0.0394,0.0394,0.0394,0.0415,0.0416,0.0417,0.0418,0.0303,0.03,0.0296,0,0,0,0,0,0,0,0,0,0,0,0,0,0.0358,0.0359,0.0395,0.0395,0.0395,0.0395,0.0394,0.0394,0.0415,0.0416,0.0417,0.0418,0.0304,0.03,0.0296,0,0,0,0,0,0,0,0,0,0,0,0,0,0.0366,0.0359,0.0395,0.0407,0.0408,0.0395,0.0394,0.0394,0.0415,0.0416,0.0417,0.0418,0.0306,0.03,0.0295,0.024,0,0,0.0278,0.0276,0,0,0,0,0,0,0,0,0.0366,0.0367,0.0405,0.0406,0.0407,0.0407,0.034,0.0337,0.0415,0.0411,0.0418,0.0419,0.0328,0.032,0.0317,0.0234,0.0229,0.0278,0.0274,0.0272,0.027,0,0,0,0,0,0,0,0.0365,0.0367,0.0393,0.0405,0.0406,0.0393,0.0396,0.0339,0.036,0.0411,0.0413,0.0415,0.0327,0.0323,0.0315,0.0228,0.0278,0.0273,0.0269,0.0267,0.0048,0.0045,0,0,0,0,0,0,0.037,0.0367,0.0393,0.0393,0.039,0.0393,0.0396,0.0405,0.0363,0.0359,0.0414,0.0416,0.0332,0.0321,0.031,0.0302,0.0272,0.0267,0.0263,0.005,0.0047,0.0045,0,0,0,0,0,0,0.037,0.0373,0.0393,0.0381,0.0383,0.0393,0.0403,0.0405,0.0426,0.0367,0.0361,0.0438,0.0332,0.0318,0.0299,0.0295,0.0264,0.0259,0.0053,0.0049,0.0046,0.0246,0,0,0,0,0,0,0.0369,0.0373,0.0387,0.0381,0.0384,0.0403,0.0402,0.0404,0.0425,0.0428,0.0384,0.0373,0.0332,0.0308,0.0294,0.0287,0.0255,0.0056,0.0052,0.0047,0.0243,0.025,0.0256,0,0,0,0,0,0.0367,0.0379,0.0388,0.0391,0.0401,0.0404,0.0404,0.0413,0.0426,0.0436,0.0421,0.0376,0.0264,0.0304,0.0287,0.0279,0.0059,0.0053,0.0047,0.024,0.0248,0.0255,0,0,0,0,0,0,0.0369,0.0382,0.0392,0.0408,0.0415,0.0408,0.0421,0.0427,0.0425,0.0443,0.0384,0.0372,0.0353,0.0265,0.031,0.0185,0.0136,0.0127,0.0287,0.0294,0.03,0.0244,0.025,0,0,0,0,0,0.0377,0.039,0.0399,0.0412,0.0423,0.0428,0.0434,0.0451,0.0445,0.0448,0.0409,0.0349,0.0306,0.027,0.0219,0.0162,0.0128,0.0121,0.0128,0.0135,0.0066,0.0103,0.0111,0.0026,0.0026,0.0026,0,0,0.0378,0.0388,0.0395,0.0413,0.0423,0.0422,0.0435,0.0465,0.0454,0.043,0.0406,0.0397,0.0302,0.0266,0.0237,0.0198,0.0143,0.0127,0.0136,0.0061,0.0099,0.0108,0.0117,0.0022,0.0023,0.0024,0,0,0.0376,0.0404,0.0412,0.042,0.0449,0.0448,0.0463,0.0475,0.0476,0.0457,0.0448,0.0457,0.0334,0.0312,0.0269,0.0261,0.0204,0.0201,0.0172,0.0215,0.0224,0.0232,0.0244,0.0251,0.0177,0.0178,0.0178,0,0.038,0.0382,0.0414,0.042,0.0406,0.0458,0.0445,0.0457,0.0457,0.0428,0.0456,0.0357,0.0352,0.0294,0.0299,0.0287,0.0266,0.0186,0.0236,0.0242,0.0246,0.0256,0.0262,0.0187,0.0186,0.0185,0.0184,0,0.0371,0.0377,0.0385,0.0395,0.039,0.0401,0.0411,0.0413,0.0419,0.0408,0.0379,0.0403,0.0315,0.0339,0.0319,0.0311,0.0277,0.0289,0.025,0.0269,0.0276,0.0278,0.0199,0.0196,0.0194,0.0191,0,0,0.0365,0.0372,0.0378,0.035,0.0375,0.0359,0.0347,0.0314,0.0277,0.0314,0.0243,0.0274,0.0292,0.0239,0.0258,0.0297,0.04,0.0284,0.0282,0.0352,0.0453,0.0371,0.0365,0.0433,0.0433,0.0433,0.0466,0,0.0343,0.0323,0.0327,0.0283,0.0262,0.0269,0.0224,0.0212,0.0205,0.0163,0.0214,0.0183,0.0248,0.0241,0.0297,0.0352,0.04,0.0385,0.0365,0.0362,0.0338,0.0364,0.0434,0.0467,0.0468,0.0468,0.0468,0,0.0331,0.0305,0.0264,0.0181,0.0169,0.015,0.0063,0.0041,0.0017,0.0007,0.0009,0.0029,0.0074,0.0157,0.0261,0.0237,0.0328,0.0403,0.0407,0.0235,0.0282,0.0418,0.0471,0.0471,0.0471,0.0471,0.047,0,0.0294,0.0248,0.0196,0.0182,0.0121,0.0075,0.0039,-0.0003,-0.0039,-0.0069,-0.0093,-0.0065,-0.003,0.0073,0.0221,0.0232,0.0345,0.0395,0.0407,0.0402,0.0388,0.0378,0.0479,0.0479,0.0478,0.0478,0.0478,0,0.0253,0.0212,0.0178,0.0157,0.0061,0.003,-0.0052,-0.0089,-0.0131,-0.0179,-0.0155,-0.0173,-0.0046,0.0028,0.0164,0.0267,0.0311,0.0367,0.0396,0.047,0.0469,0.0393,0.0383,0.048,0.0479,0.0479,0.0479,0,0.0223,0.0218,0.0155,0.0083,0.006,-0.0002,-0.0076,-0.0148,-0.0167,-0.0224,-0.0233,-0.024,-0.0183,-0.0057,0.0108,0.0193,0.0315,0.0359,0.0393,0.043,0.0354,0.0352,0.0331,0.0328,0.0326,0.0324,0.0322,0,0.0192,0.0173,0.0124,0.0084,0.0058,-0.0019,-0.0087,-0.0143,-0.0208,-0.0256,-0.0299,-0.0284,-0.0271,-0.0111,0.0015,0.0196,0.0253,0.0311,0.0345,0.0303,0.0335,0.0337,0.0339,0.0318,0.0317,0.0317,0.0316,0,0.0117,0.0138,0.0089,0.0043,-0.0021,-0.0123,-0.0207,-0.0228,-0.03,-0.0319,-0.0345,-0.03,-0.0267,-0.016,-0.0035,0.0122,0.0257,0.0287,0.0294,0.0326,0.0288,0.0322,0.0327,0.0308,0.0309,0.031,0.031,0,0.0066,0.0026,0.0008,-0.004,-0.0107,-0.0199,-0.0236,-0.0312,-0.0358,-0.0378,-0.0382,-0.0332,-0.0305,-0.02,-0.0068,0.0031,0.0065,0.0146,0.0161,0.0171,0.011,0.0038,-0.0021,0,0,0,0,0,0.0002,-0.0035,-0.0089,-0.0146,-0.0195,-0.0227,-0.0327,-0.0362,-0.0375,-0.0397,-0.0382,-0.0346,-0.0237,-0.0206,-0.0124,-0.0124,0.0074,-0.0026,0.0174,0.0262,0.0271,0.0218,0,0,0,0,0,0,-0.0057,-0.0101,-0.011,-0.0198,-0.0222,-0.0324,-0.0361,-0.039,-0.0398,-0.0379,-0.0327,-0.0303,-0.0207,-0.0263,-0.0107,-0.0089,0.0052,0.0019,0.0021,0.0256,0.0265,0.0273,0.0221,0,0,0,0,0]}]]